Regional Weather Roundup
Issued by NWS

Home | Current Version | Previous Version | Graphics & Text | Print | Product List | Glossary On
Versions: 1 2 3 4 5 6 7 8 9 10 11 12 13 14 15 16 17 18 19 20 21 22 23 24 25 26 27
000
ASUS45 KSLC 200210
RWRUT

UTAH REGIONAL WEATHER ROUNDUP
NATIONAL WEATHER SERVICE SALT LAKE CITY UT
800 PM MDT WED JUL 19 2017

UTZ001>011-023>025-200300-

NORTHERN UTAH

CITY           SKY/WX    TMP DP  RH WIND       PRES   REMARKS
BRIGHAM CITY   MOCLDY    88  51  27 S13       30.00R
HILL AFB       NOT AVBL
LOGAN          CLOUDY    92  44  19 S12       30.00S
OGDEN          CLOUDY    86  52  30 SE13      30.01S
SALT LAKE CITY CLOUDY    85  56  37 S22G29    30.03R
TOOELE VALLEY  CLOUDY    82  55  39 S16G28    30.03R
WENDOVER       MOSUNNY   96  45  17 SE16      29.96R HX  92
HEBER CITY     CLOUDY    72  55  56 CALM      30.18S
WEST JORDAN    CLOUDY    78  63  59 S17       30.09S

$$

UTZ011>015-024>027-200300-

CENTRAL/NORTHEAST UTAH

CITY           SKY/WX    TMP DP  RH WIND       PRES   REMARKS
PROVO AIRPORT  LGT RAIN  72  63  73 CALM      30.13S
MOAB/CANYONLAN CLOUDY    81  66  60 CALM      30.00F
DELTA          MOCLDY    86  45  23 S12       30.07S
PRICE          CLOUDY    83  43  24 NW9       30.17R
ROOSEVELT      LGT RAIN  79  48  34 N5        30.15R
VERNAL         CLOUDY    77  53  43 N18G28    30.16R

$$

UTZ013>016-019>022-027-200300-

SOUTHERN UTAH

CITY           SKY/WX    TMP DP  RH WIND       PRES   REMARKS
BRYCE CANYON   PTCLDY    75  50  41 SW10      30.33S
CEDAR CITY     MOCLDY    79  54  41 SW13      30.17R
MILFORD        PTCLDY    85  51  31 S18       30.11R
ST GEORGE      CLOUDY    89  64  43 W16       29.98S HX  90
HANKSVILLE     PTCLDY    88  50  27 NW8       30.05R
BLANDING       MOCLDY    81  49  32 N6        30.22S

$$

REGIONAL REPORTS     COLORADO/ARIZONA

CITY           SKY/WX    TMP DP  RH WIND       PRES   REMARKS
CRAIG, CO      LGT RAIN  68  53  58 E10       30.27R
GRAND JUNCTION CLOUDY    78  70  76 E6        30.05R
RIFLE, CO      CLOUDY    70  61  73 W22G30    30.23R
MONTROSE, CO   CLOUDY    80  49  33 SE8       30.16S
CORTEZ, CO     CLEAR     87  47  24 W6        30.14S
COLORADO CITY    N/A     79  64  61 CALM      30.18F
PAGE, AZ       PTCLDY    87  57  35 W6        30.06S
GRAND CANYON   MOCLDY    66  62  87 CALM      30.32R
KINGMAN, AZ    CLOUDY    82  63  52 CALM      30.07S
FLAGSTAFF, AZ  LGT RAIN  58  56  93 CALM      30.35F

$$

REGIONAL REPORTS    NEVADA/IDAHO/WYOMING

CITY           SKY/WX    TMP DP  RH WIND       PRES   REMARKS
LAS VEGAS, NV  MOCLDY    87  63  44 E10       29.96S
ELY, NY        MOSUNNY   85  52  32 S16G24    30.14R
ELKO, NV       SUNNY     92  21   7 W8        30.03S
POCATELLO, ID  CLEAR     91  30  11 CALM      30.00S
BURLEY, ID     SUNNY     82  52  35 S3        29.97S
FORT BRIDGER,    N/A     68  51  54 S14       30.30F
EVANSTON, WY   CLOUDY    69  51  52 S6        30.28F
ROCK SPRINGS,  LGT RAIN  70  50  49 SW24G38   30.26R
KEMMERER, WY     N/A     73  46  38 S16G24    30.29R

$$




USA.gov is the U.S. government's official web portal to all federal, state and local government web resources and services.